Miscellaneous Local Product
Issued by NWS Hastings, NE

Home | Current Version | Previous Version | Graphics & Text | Print | Product List | Glossary On
Versions: 1 2 3 4 5 6 7 8 9 10 11 12 13 14 15 16 17 18 19 20 21 22 23 24 25 26 27 28 29 30 31 32 33 34 35 36 37 38 39 40 41 42 43 44 45 46 47 48 49 50
000
AXUS43 KGID 211502
MISGRI

GID CWA HOURLY WEATHER ROUNDUP
NATIONAL WEATHER SERVICE HASTINGS NE
900 AM CST TUE NOV 21 2017

NOTE: "FAIR" INDICATES FEW OR NO CLOUDS BELOW 12,000 FEET WITH NO
SIGNIFICANT WEATHER AND/OR OBSTRUCTIONS TO VISIBILITY.

...SOUTH CENTRAL NEBRASKA...

CITY           SKY/WX    TMP DP  RH WIND       PRES   REMARKS
GRAND ISLAND   PTSUNNY   36  28  73 N22       30.17R WCI  25
KEARNEY        PTSUNNY   36  27  69 N16G24    30.18R WCI  26
HASTINGS       SUNNY     36  26  67 N24G35    30.16R WCI  24
ORD            CLOUDY    32  23  69 N23       30.19R WCI  19
YORK           SUNNY     37  28  70 N17G33    30.12R WCI  28
AURORA         MOSUNNY   37  26  66 N26G38    30.15R WCI  25
LEXINGTON      PTSUNNY   37  28  67 N20       30.20R WCI  27
HOLDREGE       SUNNY     36  29  74 N18G26    30.17R WCI  26
HEBRON         CLOUDY    41  29  61 N21G28    30.12R

...NEBRASKA PANHANDLE...

CITY           SKY/WX    TMP DP  RH WIND       PRES   REMARKS
CHADRON        CLOUDY    30  28  92 CALM      30.28R
ALLIANCE       CLOUDY    30  24  78 N12       30.24R WCI  20
SCOTTSBLUFF    CLOUDY    32  24  72 N3        30.27R
SIDNEY         CLOUDY    32  26  78 N17       30.24R WCI  21

...WESTERN AND NORTH CENTRAL NEBRASKA...

CITY           SKY/WX    TMP DP  RH WIND       PRES   REMARKS
VALENTINE      SUNNY     25  16  68 N16G24    30.26R WCI  12
AINSWORTH      SUNNY     24  15  70 N20       30.24R WCI   9
ONEILL         SUNNY     22  13  70 NW28G35   30.24R WCI   4
BROKEN BOW     CLOUDY    35  24  64 N25G35    30.20R WCI  23
IMPERIAL       CLOUDY    36  27  69 N20       30.24R WCI  25
NORTH PLATTE   CLOUDY    35  23  61 N12G24    30.22R WCI  27
MCCOOK         MOSUNNY   38  27  64 N13G23    30.22R WCI  30

...EASTERN NEBRASKA...

CITY           SKY/WX    TMP DP  RH WIND       PRES   REMARKS
NORFOLK        SUNNY     26   9  48 N32G43    30.15R WCI   9
SO SIOUX CITY  SUNNY     22   9  57 N31G40    30.16R WCI   4
TEKAMAH        CLOUDY    31  13  47 NW32G44   30.13R WCI  16
COLUMBUS       PTSUNNY   33  11  39 NW28G37   30.15R WCI  20
ALBION         SUNNY     32  19  57 N23G36    30.17R WCI  19
OMAHA EPPLEY   CLOUDY    39  17  41 NW30G36   30.07R WCI  27
OFFUTT AFB     PTSUNNY   42  16  34 N24G36    30.07R
MILLARD        CLOUDY    41  18  39 N18G30    30.10R
LINCOLN        CLOUDY    41  26  55 N25G35    30.12R
NEBRASKA CITY  CLOUDY    41  27  55 N24       30.05R
BEATRICE       CLOUDY    42  28  58 N18G25    30.09R
FALLS CITY     CLOUDY    43  27  53 N10G20    30.03R

...NORTHERN KANSAS...

CITY           SKY/WX    TMP DP  RH WIND       PRES   REMARKS
GOODLAND       SUNNY     38  25  59 N20G37    30.19R WCI  28
HILL CITY      SUNNY     42  24  49 N18G35    30.17R
NORTON         SUNNY     37  23  56 N17G24    30.17R WCI  28
SMITH CENTER   MOSUNNY   39  27  60 N25G39    30.13R WCI  28
HAYS           SUNNY     45  25  45 NE29      30.12R
RUSSELL        CLOUDY    44  24  45 N25G33    30.11R
CONCORDIA      CLOUDY    42  28  57 N20G26    30.10R
SALINA         PTSUNNY   49  26  41 N21G29    30.07R
TOPEKA         CLOUDY    48  27  44 N13G22    30.01R



USA.gov is the U.S. government's official web portal to all federal, state and local government web resources and services.